Location: Champseau
(45.8333°N, 1.7667°E)
Time: 19:24:17
(UTC+00:00)

STRAND 1 - Pass Details

Date: 05 December 2021
Orbit: 768 x 780 km, 98.4° (Epoch: 23 January)

Event Time Altitude Azimuth Distance (km) Brightness Sun altitude
Rises 05:15:52 0° 140° (SE) 3,247 ? -20.5°
Reaches altitude 10° 05:18:19 10° 131° (SE) 2,321 ? -20.1°
Maximum altitude 05:22:57 36° 67° (ENE) 1,220 ? -19.3°
Drops below altitude 10° 05:27:35 10° 2° (N) 2,328 ? -18.5°
Sets 05:30:03 0° 354° (N) 3,258 ? -18.1°
